Theta_e
355 359 363 364 364 365 366 366 363 361 360 360 362 362 361 361 363 363 360 360 361 361 357 355 353 352 352 352 354 355 357 362 360 358 357 353 350 347 345 343 343 337 339
359 357 362 364 364 364 366 365 363 361 360 361 362 362 361 362 363 362 360 360 361 358 356 354 353 353 353 355 356 356 357 357 360 358 354 351 347 344 342 341 340 338 337
358 355 357 364 364 365 365 364 362 362 362 362 361 361 362 363 363 362 360 360 360 357 355 353 353 354 355 356 358 358 358 357 356 353 351 347 343 342 341 339 338 337 336
358 356 350 363 364 365 364 364 363 363 363 362 361 362 363 363 362 361 360 360 359 356 354 352 353 355 355 356 359 359 358 354 352 351 348 344 340 340 339 338 337 336 336
359 355 355 362 363 363 363 363 363 363 363 363 362 362 362 362 361 360 360 360 358 355 352 351 353 354 356 360 360 360 356 352 349 349 344 341 339 339 338 337 336 336 335
358 356 360 362 362 362 361 362 362 362 362 363 362 362 362 361 360 360 359 359 359 355 350 350 353 355 359 362 361 356 353 350 352 346 343 339 338 338 338 336 336 334 334
357 359 357 361 361 361 360 361 361 362 361 362 362 362 361 361 359 359 358 359 358 354 350 350 352 357 360 360 357 353 350 348 348 344 342 339 338 338 336 335 335 334 333
357 361 361 361 361 361 360 360 361 361 361 361 361 360 360 359 359 358 358 358 357 354 350 351 353 358 360 359 354 351 349 350 348 344 342 338 338 337 336 334 334 333 333
360 360 362 360 360 359 360 359 359 360 360 360 360 360 360 359 358 357 357 357 355 354 351 350 354 360 360 357 353 350 349 345 349 344 339 338 336 336 336 334 333 333 333
359 359 360 361 359 357 356 359 359 359 360 360 360 360 359 358 357 356 355 356 355 353 351 350 352 359 358 356 353 349 346 344 348 339 340 336 337 336 335 333 333 332 332
357 359 360 359 359 359 357 358 358 358 358 359 358 359 356 351 353 352 353 355 354 353 351 350 350 357 357 354 351 348 346 348 342 344 337 338 336 336 335 333 333 332 330
353 358 361 361 361 360 357 360 357 353 351 351 350 354 350 348 352 348 352 353 353 353 351 350 351 353 357 356 353 349 351 346 341 341 339 338 337 336 335 333 332 330 331
338 357 361 366 366 362 359 359 358 355 353 351 352 353 352 349 352 348 349 346 347 352 347 345 348 349 354 355 357 354 350 349 343 341 339 338 337 336 335 333 331 330 331
328 339 356 364 366 365 362 359 359 357 356 354 354 356 352 350 349 348 346 345 345 344 345 346 343 349 353 357 355 354 353 350 347 343 340 338 337 336 334 332 330 333 329
326 332 345 359 365 365 366 361 360 359 356 357 355 355 352 349 349 348 348 346 343 343 344 345 342 345 350 354 357 356 354 352 349 340 340 338 337 336 335 332 332 332 329
325 330 339 353 362 361 364 363 361 361 359 357 356 355 356 351 355 348 348 348 346 344 343 342 343 342 346 351 355 357 355 353 350 345 340 339 339 338 335 332 331 330 329
327 332 339 349 358 359 362 362 361 362 358 357 355 358 357 355 352 349 347 346 347 347 346 345 345 346 341 347 353 357 356 353 345 345 342 340 337 337 335 333 331 330 328
330 333 341 339 348 359 361 360 361 361 358 357 355 355 358 355 351 354 348 348 348 349 347 344 345 344 342 341 346 352 353 353 347 343 342 340 339 337 335 334 332 332 328
331 334 342 347 348 358 362 359 360 360 357 356 357 354 357 352 353 353 348 349 353 349 348 346 346 346 343 343 344 352 353 351 349 341 343 342 341 337 338 335 333 332 328
331 334 342 347 353 359 357 358 355 352 354 357 357 356 357 354 355 354 349 346 351 350 348 347 348 348 347 343 342 346 348 349 348 346 343 341 341 338 338 339 335 332 330
331 336 343 348 355 355 351 346 343 339 342 343 345 352 355 356 356 357 351 349 353 348 351 351 349 348 346 348 346 346 346 349 349 347 344 340 341 339 337 338 338 336 332
331 334 342 348 354 355 349 348 342 339 337 338 341 349 353 352 355 354 355 353 348 345 350 352 350 344 344 350 344 347 337 341 344 345 342 341 342 339 334 338 339 338 336
330 333 337 347 351 354 353 352 353 351 351 344 341 343 348 353 354 356 354 353 353 351 345 348 347 348 340 348 351 342 335 332 342 347 342 342 343 339 336 337 338 338 337
327 331 333 341 349 352 355 352 354 339 333 330 334 336 346 351 350 351 354 353 354 349 350 351 350 348 346 340 346 348 351 345 337 336 341 341 342 339 340 336 336 337 337
328 329 331 335 338 344 352 353 348 347 339 340 340 343 346 348 349 348 350 352 353 351 350 352 350 345 340 341 344 343 350 346 346 346 337 336 339 340 340 338 336 335 336
326 330 333 336 337 339 339 341 343 341 340 334 335 335 333 336 339 345 347 350 352 352 350 349 351 350 344 347 346 347 343 344 338 337 340 343 338 336 337 337 337 335 334
Wind_Speed
10 16 12 12 13 13 13 14 15 16 16 15 16 16 15 14 13 13 13 13 13 11 11 10 9 8 8 8 8 8 7 12 14 14 17 16 15 16 15 13 10 14 13
15 16 13 12 13 13 13 15 16 16 15 16 16 16 15 14 13 13 13 13 12 12 10 9 9 8 7 7 7 7 6 12 12 12 15 17 15 14 14 14 14 13 12
16 16 16 13 14 14 11 13 15 15 16 15 16 15 15 14 14 13 12 11 12 11 10 9 8 8 7 6 6 8 11 15 11 6 5 12 13 13 13 12 12 11 11
15 15 16 13 13 13 14 13 13 14 15 15 15 15 14 13 13 13 12 11 12 10 9 9 7 7 6 6 9 13 14 13 8 8 5 10 12 12 12 11 11 10 9
14 14 14 12 12 12 12 13 14 13 14 14 15 14 14 13 12 12 12 11 11 10 9 8 8 6 6 7 10 14 13 11 6 3 10 10 10 10 11 11 10 12 11
14 13 16 12 13 12 12 12 12 13 13 14 14 14 14 13 12 11 12 10 10 10 9 7 7 7 7 11 14 14 12 9 12 10 9 10 12 10 11 11 9 10 12
14 14 15 11 11 11 13 12 11 11 12 13 13 13 13 12 11 11 10 10 10 10 9 7 6 9 10 12 13 12 10 6 1 9 9 10 11 10 10 10 10 10 11
12 12 14 12 11 10 10 10 10 10 10 10 10 11 11 11 11 10 10 9 9 9 8 6 5 8 11 12 12 11 8 6 6 8 8 10 10 10 9 9 10 10 11
11 11 13 13 12 11 11 10 9 9 10 10 10 9 8 9 10 10 9 9 9 9 8 7 5 7 11 11 12 10 7 5 4 6 6 9 9 10 10 9 10 10 11
10 11 11 11 13 12 12 11 11 10 10 9 9 9 8 8 9 9 9 9 9 9 9 7 6 10 11 10 10 9 7 4 3 6 9 8 9 10 9 9 10 10 14
7 9 9 11 11 10 11 12 11 10 10 9 10 9 9 10 11 13 7 12 9 8 8 9 7 8 10 10 10 10 10 4 7 3 7 11 9 9 9 9 10 11 11
9 9 8 8 8 9 7 10 10 11 10 10 11 11 10 9 7 5 10 9 9 9 7 8 9 9 13 10 7 9 6 5 5 5 6 11 10 9 10 9 10 9 11
7 8 9 8 8 9 8 7 6 6 7 8 11 9 10 7 7 7 7 8 8 9 8 9 9 9 11 6 9 8 6 6 4 3 11 12 10 10 10 9 8 8 11
7 5 7 9 9 9 6 7 6 6 7 7 9 11 8 6 7 7 5 7 6 8 7 7 7 7 6 7 7 6 7 6 5 5 10 12 11 10 9 8 6 9 10
7 7 8 8 8 8 8 6 6 7 7 7 7 10 8 8 6 7 6 6 6 6 7 7 6 7 9 8 8 7 8 7 8 3 6 13 12 10 9 7 7 7 7
11 9 8 8 7 8 8 7 6 6 6 7 7 8 12 9 3 7 7 7 6 6 6 7 7 7 8 8 8 6 6 6 8 8 7 10 11 11 9 7 6 6 6
10 8 9 9 8 9 10 8 7 6 6 6 6 8 10 10 9 5 7 7 7 7 7 6 6 7 7 8 8 8 7 8 8 9 8 8 10 11 10 8 7 6 5
10 11 8 8 10 10 8 5 7 6 5 4 7 6 11 12 5 8 8 7 7 7 7 7 8 8 8 8 8 7 9 8 11 9 9 6 8 9 10 10 8 7 4
11 11 10 10 10 10 9 8 7 5 5 5 5 4 9 10 11 9 6 6 6 8 8 7 8 8 8 8 8 5 5 7 10 10 10 10 8 7 8 13 10 7 5
9 11 10 10 9 9 7 6 6 5 6 5 6 6 8 7 9 9 8 5 7 9 9 8 8 8 8 8 8 7 7 6 9 9 11 9 9 9 5 11 10 9 8
10 11 12 12 11 9 8 8 7 7 6 5 5 6 7 8 9 10 8 7 7 10 10 8 9 10 8 7 4 5 6 8 10 10 9 9 10 10 8 8 6 7 8
12 13 12 12 12 10 8 6 4 5 5 5 5 6 8 9 8 8 9 8 8 5 5 10 10 9 9 6 8 5 6 6 9 9 9 10 10 9 9 10 9 6 6
12 13 14 13 12 12 10 7 6 4 4 6 6 7 8 9 9 10 10 9 8 9 9 6 6 10 7 8 13 7 5 8 9 9 12 10 10 9 10 9 9 8 7
11 10 11 11 12 11 11 9 10 8 8 6 4 4 3 5 8 10 11 11 10 8 9 10 10 10 7 9 8 11 9 11 4 5 7 10 9 10 11 7 9 9 8
8 9 9 10 9 8 9 9 9 10 8 6 4 4 6 6 8 10 10 11 11 9 9 10 11 13 11 11 9 9 9 9 8 6 6 7 9 10 9 10 8 8 9
9 9 9 9 9 9 9 9 7 5 6 5 4 4 5 4 4 6 8 10 10 11 11 10 12 14 13 11 9 10 6 9 11 10 8 7 8 9 8 9 9 8 8
Wind_Direction
172 137 154 152 144 141 148 149 148 148 150 149 143 137 136 135 131 126 121 116 114 112 114 111 107 102 101 100 100 105 112 110 99 94 87 77 74 69 62 46 33 63 54
146 142 152 149 140 141 147 149 146 146 148 147 144 140 138 135 130 127 123 122 122 121 116 112 112 107 104 108 114 122 126 105 100 101 112 97 72 71 66 59 44 65 57
144 147 160 150 140 139 139 141 140 144 144 145 144 142 139 136 133 129 127 128 126 126 123 117 113 109 106 106 116 138 113 98 96 122 212 69 76 69 72 67 62 65 59
143 149 155 153 143 141 141 139 140 142 142 145 146 143 138 134 134 133 134 134 131 130 125 121 113 101 104 112 109 127 116 111 133 200 77 76 83 70 71 68 63 53 73
150 152 134 151 141 141 143 141 141 141 143 146 146 144 139 137 137 137 137 140 138 134 128 124 110 102 108 124 121 117 117 124 177 217 57 58 76 79 68 49 83 68 49
150 148 133 151 146 146 148 143 143 144 148 149 149 145 141 142 141 139 139 143 139 137 132 127 113 110 113 123 121 122 128 157 214 92 89 85 65 77 71 67 67 54 52
146 137 150 147 147 153 156 152 148 150 151 151 151 148 146 146 145 141 140 143 140 137 134 126 117 125 132 126 126 133 143 197 331 83 87 72 80 80 78 70 62 49 45
139 139 136 141 146 153 159 162 156 153 150 151 151 150 150 147 145 146 145 144 141 134 131 123 122 135 145 136 138 141 152 224 121 88 86 86 93 86 75 66 61 54 49
146 150 154 160 156 158 160 163 164 161 157 156 153 153 157 149 147 149 148 144 141 131 129 125 116 125 142 143 145 150 159 252 101 82 98 90 96 88 76 69 64 60 53
161 158 162 168 170 173 165 168 171 172 168 163 161 160 162 152 150 153 149 151 149 142 137 141 134 135 143 145 145 146 156 237 76 99 75 93 104 93 84 74 70 62 54
166 164 180 175 169 185 168 161 174 179 181 174 177 174 171 200 178 159 118 141 158 155 151 150 151 154 147 147 151 159 181 178 95 108 96 117 107 98 90 82 77 61 60
184 189 188 199 174 183 180 164 194 182 197 198 195 186 218 212 190 206 135 152 167 167 168 164 166 166 191 166 167 180 225 145 141 114 110 132 118 108 97 92 82 71 59
183 187 201 182 187 204 192 183 193 194 194 197 206 205 212 195 191 209 171 177 182 188 188 191 179 205 209 172 161 195 138 182 155 133 123 141 130 119 111 102 94 75 57
210 201 197 188 193 208 204 194 203 206 196 201 196 196 213 213 194 216 211 199 192 175 206 204 199 220 209 230 189 194 170 178 172 137 132 148 141 132 124 117 107 88 63
259 213 200 192 196 205 209 203 218 209 202 206 205 196 206 213 206 202 203 217 202 194 190 199 225 206 211 214 219 206 189 172 154 161 139 159 153 149 137 129 125 109 85
230 226 207 202 194 206 226 216 221 215 187 221 206 212 202 207 225 219 204 216 213 217 206 211 206 209 226 222 212 203 207 186 148 184 163 160 166 161 151 145 131 103 76
228 233 216 208 200 200 215 202 229 223 212 196 215 208 215 204 206 264 226 224 216 214 222 213 209 217 222 227 237 196 210 202 158 183 189 157 162 176 169 164 152 126 100
235 219 221 221 192 199 207 186 218 202 216 200 200 211 196 207 238 200 234 229 232 223 215 213 212 213 217 220 224 209 202 177 188 159 203 187 181 172 180 184 173 158 129
226 220 213 212 215 183 185 169 215 199 197 244 205 214 191 212 201 220 258 253 235 243 232 222 216 229 222 233 228 227 207 182 179 185 185 202 189 197 188 169 183 177 156
218 212 216 203 203 184 173 183 194 191 209 206 197 200 206 220 206 214 214 226 282 254 236 226 233 220 243 217 221 180 201 204 193 185 194 198 191 199 219 168 178 181 168
212 207 203 196 186 188 184 193 192 196 195 204 214 203 217 212 205 202 218 229 223 242 254 222 229 223 226 225 235 214 191 205 201 202 195 203 192 197 209 204 227 172 155
210 207 205 202 187 200 191 213 224 208 202 217 207 212 222 226 222 223 222 210 215 244 253 238 226 243 214 215 222 211 206 202 213 203 204 209 200 198 208 210 218 195 188
211 199 200 198 196 201 211 193 196 213 237 222 217 225 222 238 236 232 234 238 215 214 217 205 230 218 228 226 224 231 223 234 179 193 208 213 199 205 211 206 210 205 202
201 196 191 197 203 201 195 210 218 228 229 219 242 273 288 257 250 241 241 241 232 227 220 211 205 201 214 224 211 228 264 309 173 196 204 208 210 208 214 205 196 207 191
162 179 186 187 193 208 206 227 207 225 230 246 267 271 262 269 263 257 248 244 239 232 228 235 211 217 215 231 228 218 221 239 238 247 206 197 197 212 204 211 213 197 191
131 132 142 155 163 175 189 196 211 231 239 237 216 266 261 270 261 250 261 252 247 244 238 232 232 223 227 228 243 239 201 232 235 236 238 212 212 192 202 200 202 199 180